Regional Weather Roundup
Issued by NWS Newport/Morehead, NC

Current Version | Previous Version | Text Only | Print | Product List | Glossary On
Versions: 1 2 3 4 5 6 7 8 9 10 11 12 13 14 15 16 17 18 19 20 21 22 23 24 25 26 27 28 29 30 31 32 33 34 35 36 37 38 39 40 41 42 43 44 45 46 47 48 49 50
000
ASUS42 KMHX 070213
RWRMHX
WEATHER ROUNDUP FOR EASTERN NORTH CAROLINA
NATIONAL WEATHER SERVICE NEWPORT/MOREHEAD CITY NC
900 PM EST SAT FEB 06 2016

NOTE: "FAIR" INDICATES FEW OR NO CLOUDS BELOW 12,000 FEET
WITH NO SIGNIFICANT WEATHER AND/OR OBSTRUCTIONS TO VISIBILITY

NCZ015>017-031-032-045>047-102-103-070300-
NORTH COAST

CITY           SKY/WX    TMP DP  RH WIND       PRES   REMARKS
EDENTON        CLOUDY    39  33  78 CALM      30.32F
ELIZABETH CITY PTCLDY    38  32  79 NE7       30.32F
KITTY HAWK     CLOUDY    42  32  68 N5        30.29F
MANTEO         CLOUDY    42  34  73 NE10      30.30F

$$

NCZ045>047-081-094-103-104-070300-
CENTRAL COAST

CITY           SKY/WX    TMP DP  RH WIND       PRES   REMARKS
FRISCO         CLOUDY    45  37  73 NE10G18   30.27F
SWANQUARTER      N/A     43 N/A N/A N9        30.27S

$$

NCZ095-097-098-100-101-070300-
SOUTHERN COAST

CITY           SKY/WX    TMP DP  RH WIND       PRES   REMARKS
BEAUFORT       LGT RAIN  43  35  73 NE13      30.26F
CEDAR ISLAND     N/A     45 N/A N/A N21       30.30F
JACKSONVILLE   CLOUDY    44  29  55 N13       30.24F
PINEY ISLAND   CLOUDY   N/A N/A N/A MISG      30.26F
WILMINGTON     CLOUDY    45  30  55 NE14      30.22F


$$

NCZ011>013-027>030-043-044-078>080-089-090>093-098-070300-
COASTAL PLAIN

CITY           SKY/WX    TMP DP  RH WIND       PRES   REMARKS
AHOSKIE        CLEAR     33  25  72 CALM      30.32F
CLINTON        CLOUDY    44  29  54 NE3       30.28F
ELIZABETHTOWN  LGT RAIN  44  27  50 CALM      30.26F
GOLDSBORO      CLOUDY    43  27  52 NE7       30.26F
GREENVILLE     CLOUDY    43  28  56 E3        30.30F
HAVELOCK       CLOUDY    44  31  60 NE16      30.27F
KENANSVILLE      N/A     42  28  56 CALM      30.28F
KINSTON        CLOUDY    43  30  61 MISG      30.29F
NEW BERN       CLOUDY    43  31  62 NE12      30.28F
RICHLANDS      CLOUDY    43  27  52 N8        30.26F
ROCKY MOUNT    CLOUDY    37  31  78 NE5       30.30F
WASHINGTON     CLOUDY    40  32  71 CALM      30.29F
WHITEVILLE     CLOUDY    45  25  44 NE5       30.23F

$$

AMZ130-135-150-152-154-156-158-170-250-252-270-ANZ085-086-088-633-658-670-070300-
MARINE OBSERVATIONS

STATION/POSITION TIME  TEMP    WIND        PRES    WAVE   SWELL
                       AIR SEA DIR/SP/G            HT/PER HT/PER
                 (UTC) (F)     (DEG/KT/KT) (MB)    (FT/S) (FT/S)
CHESAPEAKE LIGHT 0200   40      30/  2/  2 1027.9
64 E VA BEACH    0150   44 53   10/ 12/ 14 1025.8    3/ 8   3/ 8
DUCK             0100   42 45   30/  9/ 10 1026.1
2 E DUCK         0111      45                N/A     4/12   2/12
OREGON INLET     0100   43 47  360/  8/ 13 1026.0
13E OREGON INLT  0200      46                N/A     5/12   3/12
HATTERAS CG      0100   45 52   10/ 18/ 21 1024.7
DIAMOND BUOY     0150   53 71  360/ 21/ 25 1023.8    6/11   3/11
CAPE LOOKOUT     NOT AVBL
BEAUFORT LAB     0100   44 50   10/ 13/ 20 1023.8
30 SE NEW RVR IN 0108   50 65              1022.5
30 SE NEW RVR IN 0125      65                N/A     6/11   2/11
27 SE WRIGHTSVLE 0108   52 69  360/ 23/ 29 1021.9
5 SE WRIGHTSVLE  0108   48 53   30/ 21/ 27 1023.1
225 S CAPE HAT   0150   63 69  100/ 16/ 19   N/A     7/11   7/11
41 SE CHARLESTON 0150   52 64   10/ 27/ 31 1019.5    7/ 6   3/10

$$



USA.gov is the U.S. government's official web portal to all federal, state and local government web resources and services.